CAPE
nan nan nan nan nan nan nan nan nan nan nan nan nan nan nan nan nan nan nan nan nan nan nan 10 10 15 5 3 5 5 7 5 2 2 1 2 3 3 3 2 2 2 2 3 3 4 4 6 6 7 9 10 11 11 12 14 14 15 20 25 25 24 24 21 21 20 17 16 13 13 9 5 2 2 nan nan nan nan nan nan nan nan nan nan nan nan
nan nan 0 0 0 nan nan nan nan nan nan nan nan nan 0 1 0 0 nan 1 1 1 3 13 13 14 19 13 7 7 6 6 3 3 2 3 4 4 4 5 5 3 2 2 2 3 3 3 3 3 5 7 7 7 9 13 13 13 14 21 21 25 26 27 27 26 21 20 15 15 8 3 nan nan nan nan nan nan nan nan nan nan nan nan nan nan
nan nan 0 0 0 0 0 0 0 0 nan nan nan nan 1 2 3 3 3 2 2 2 0 9 9 15 23 19 8 8 5 4 4 4 3 3 5 5 5 4 4 4 3 1 1 0 nan nan nan nan 0 2 3 3 5 9 9 11 11 15 15 17 17 22 22 20 19 16 9 9 5 0 nan nan nan nan nan nan nan nan nan nan nan nan nan nan
0 nan 1 1 1 1 1 0 0 0 1 0 0 0 2 3 4 4 6 3 3 nan nan nan nan 5 21 22 10 10 3 2 5 5 4 5 6 6 5 5 5 3 2 0 0 nan nan nan nan nan nan nan nan nan 1 2 2 8 9 9 9 7 1 1 1 2 3 1 nan nan nan nan nan nan nan nan nan nan nan nan nan nan nan nan nan nan
0 0 1 1 1 1 2 3 1 1 1 2 2 2 4 6 6 6 4 1 1 nan nan nan nan 0 0 10 8 8 2 4 5 5 4 6 6 6 6 6 6 3 1 nan nan nan nan nan nan nan nan nan nan nan nan nan nan 3 3 1 1 nan nan nan nan nan nan nan nan nan nan nan nan nan nan nan nan nan nan nan nan nan nan nan nan nan
0 1 2 2 2 2 3 2 3 3 4 3 4 4 6 7 4 4 2 1 1 0 0 0 0 0 0 2 7 7 2 4 4 4 5 5 6 6 8 6 6 3 2 0 0 nan nan nan nan nan nan nan nan nan nan nan nan nan nan nan nan nan nan nan nan nan nan nan nan nan nan nan nan nan nan nan nan nan nan nan nan nan nan nan nan nan
nan 1 3 2 2 2 2 1 3 3 3 3 4 4 3 2 2 2 2 1 1 1 1 0 0 0 0 0 7 7 1 3 4 4 5 7 9 9 9 7 7 5 4 2 2 1 0 0 0 nan nan nan nan nan nan nan nan nan nan nan nan nan nan nan nan nan nan nan nan nan nan nan nan nan nan nan nan nan nan nan nan nan nan nan nan nan
nan 0 2 2 2 1 1 1 2 2 3 2 2 2 2 1 1 1 2 1 1 1 2 1 1 0 0 nan nan nan 3 3 4 4 7 10 10 10 12 10 10 10 8 8 8 8 5 2 2 1 0 0 nan nan nan nan nan nan nan nan nan nan nan nan nan nan nan nan nan nan nan nan nan nan nan nan nan nan nan nan nan nan nan nan nan nan
8 0 1 0 0 0 1 1 3 3 4 4 4 4 3 2 3 3 2 2 2 1 1 1 1 0 0 nan nan nan 0 2 2 2 7 10 13 13 16 15 15 15 13 14 14 12 10 5 5 3 2 1 nan nan nan nan nan nan nan nan nan nan nan nan nan nan nan nan nan nan nan nan nan nan nan nan nan nan nan nan nan nan nan nan nan nan
5 1 1 1 1 3 1 2 5 5 6 5 5 5 7 5 3 3 3 2 2 1 1 1 1 0 0 nan 0 0 0 1 3 3 11 nan 16 16 12 13 13 16 15 16 16 14 13 9 9 6 4 4 1 1 nan nan nan nan nan nan nan nan nan nan nan nan nan nan nan nan nan nan nan nan nan nan nan nan nan nan nan nan nan nan nan nan
2 3 1 1 1 1 2 3 3 3 4 4 4 4 7 7 2 2 2 2 2 1 0 0 0 0 0 0 0 0 0 0 0 0 0 nan nan nan nan nan nan 5 12 9 9 11 10 8 8 8 7 6 4 4 nan nan nan nan nan nan nan nan nan nan nan nan nan nan nan nan nan nan nan nan nan nan nan nan nan nan nan nan nan nan nan nan
5 3 2 1 1 1 2 1 2 2 4 4 3 3 4 5 5 5 2 2 2 1 0 0 0 0 0 0 0 0 nan nan nan nan nan nan nan nan nan nan nan nan nan 2 2 3 4 3 3 7 8 10 7 7 1 nan nan nan nan nan nan nan nan nan nan nan nan nan nan nan nan nan nan nan nan nan nan nan nan nan nan nan nan nan nan nan
4 1 2 3 3 4 3 2 2 2 4 3 2 2 2 3 0 0 3 1 1 1 0 0 0 0 0 0 0 0 0 nan nan nan 0 0 0 0 nan nan nan nan nan nan nan nan nan 1 1 3 5 7 4 4 1 nan nan nan nan nan nan nan nan nan nan nan nan nan nan nan nan nan nan nan nan nan nan nan nan nan nan nan nan nan nan nan
2 1 2 5 5 6 5 2 2 2 3 4 7 7 6 1 0 0 0 0 0 0 nan 0 0 0 0 0 0 0 0 nan 0 0 0 0 0 0 nan nan nan 0 nan 0 0 nan nan nan nan 5 5 9 7 7 1 nan nan nan nan nan nan nan nan nan nan nan nan nan nan nan nan nan nan nan nan nan nan nan nan nan nan nan nan nan nan nan
3 2 2 3 3 4 4 2 2 2 3 0 0 0 0 1 1 1 0 0 0 0 0 0 0 0 0 0 0 0 0 0 0 0 0 0 0 0 nan nan nan nan nan 3 3 nan nan nan nan nan 3 10 8 8 1 1 1 nan nan nan nan nan nan nan nan nan nan nan nan nan nan nan nan nan nan nan nan nan nan nan nan nan nan nan nan nan
3 2 3 3 3 3 2 1 2 2 2 0 0 0 0 1 1 1 1 0 0 0 1 1 1 1 0 0 0 0 0 0 nan nan nan 0 0 0 0 0 0 0 0 nan nan nan nan nan nan nan nan 5 1 1 0 2 2 0 nan nan nan nan nan nan nan nan nan nan nan nan nan nan nan nan nan nan nan nan nan nan nan nan nan nan nan nan
5 3 2 5 5 3 1 1 2 2 1 0 0 0 0 1 1 1 1 nan nan 0 0 1 1 0 1 1 0 0 0 0 nan nan 0 0 0 0 nan nan nan 1 nan nan nan nan nan nan nan nan nan nan nan nan nan 1 1 1 1 2 2 1 1 1 1 nan nan nan nan nan nan nan nan nan nan nan nan nan nan nan nan nan nan nan nan nan
4 4 4 4 4 5 2 0 0 0 0 1 0 0 0 nan 0 0 0 nan nan 0 0 nan nan nan 0 0 0 0 0 0 0 0 0 0 nan nan nan nan nan nan nan nan nan nan nan nan nan nan nan nan nan nan nan nan nan 0 3 4 4 3 2 1 1 0 nan nan nan nan nan nan nan nan nan nan nan nan nan nan nan nan nan nan nan nan
4 4 5 4 4 6 2 0 1 1 1 0 1 1 0 0 nan nan 0 nan nan 0 0 nan nan nan nan 0 0 0 0 0 0 0 1 1 nan nan nan nan nan nan nan nan nan nan nan nan nan nan nan nan nan nan nan nan nan nan 0 1 1 2 1 0 0 nan nan nan 0 0 0 0 0 0 nan nan nan nan nan nan nan nan nan nan nan nan
3 4 4 7 7 5 2 2 1 1 1 0 1 1 1 1 1 1 0 nan nan nan nan 0 0 nan nan 0 0 0 0 0 0 0 1 4 nan nan nan nan nan nan nan nan nan nan nan nan nan nan nan nan nan nan nan nan nan nan nan nan nan nan nan nan nan nan nan nan nan nan 0 0 1 1 1 nan nan nan nan nan nan nan nan nan nan 0
3 3 3 3 3 4 4 3 2 2 1 1 2 2 1 0 1 1 nan nan nan nan nan nan nan nan nan 0 nan nan nan 0 nan nan 0 1 nan nan nan nan nan nan nan nan nan nan nan nan nan nan nan nan nan nan nan nan nan nan nan nan nan nan nan nan nan nan nan nan nan nan nan 0 1 1 1 0 0 0 0 0 0 0 0 0 0 0
3 3 5 3 3 3 5 7 5 5 2 0 3 3 2 1 1 1 1 0 0 0 1 nan nan nan nan nan nan nan nan 0 0 0 nan nan nan nan nan nan nan nan nan nan nan nan nan nan nan nan nan nan nan nan nan nan nan nan nan nan nan nan nan nan nan nan nan nan nan nan nan 0 1 1 2 1 1 1 1 1 1 1 1 1 1 1
4 2 0 nan nan 2 4 8 7 7 6 2 6 6 5 3 3 3 3 2 2 2 nan nan nan nan nan nan nan nan nan nan 0 0 0 nan 1 1 nan nan nan nan nan nan nan nan nan nan nan nan nan nan nan nan nan nan nan nan nan nan nan nan nan nan nan nan nan nan nan nan nan 0 2 2 4 2 2 2 1 1 1 2 1 1 1 3
nan nan nan nan nan nan 0 2 7 7 6 1 nan nan 0 nan nan nan 1 nan nan nan nan nan nan nan nan nan nan nan nan nan nan nan 1 1 nan nan nan nan nan nan nan nan nan nan nan nan nan nan nan nan nan nan nan nan nan nan nan nan nan nan nan nan nan nan nan nan nan nan nan 0 3 3 4 4 2 2 2 2 2 2 2 3 3 4
nan nan nan nan nan nan nan nan 3 3 3 nan nan nan nan nan nan nan nan nan nan nan nan nan nan nan nan nan nan nan nan nan nan nan 1 1 nan nan nan nan nan nan nan nan nan nan nan nan nan nan nan nan nan nan nan nan nan nan nan nan nan nan nan nan nan nan nan nan nan nan 0 1 3 3 5 5 4 4 3 3 3 3 3 3 3 4
nan nan nan nan nan nan nan nan 0 0 0 nan nan nan nan nan nan nan nan nan nan nan nan 0 0 1 nan nan nan nan nan nan nan nan nan nan nan nan nan nan nan nan nan nan nan nan nan nan nan nan nan nan nan nan nan nan nan nan nan nan nan nan nan nan nan nan nan nan 0 0 1 2 5 5 7 7 6 6 5 4 4 4 4 3 3 3
2 2 1 0 0 nan 0 1 1 1 0 nan nan nan nan nan nan nan nan nan nan nan 1 1 1 2 nan nan nan nan nan nan nan nan nan nan nan nan nan nan nan nan nan nan nan nan nan nan nan nan nan nan nan nan nan nan nan nan nan nan nan nan nan 0 0 0 0 0 0 0 1 4 7 7 9 9 7 7 5 5 5 5 5 3 3 4
1 1 2 2 2 2 2 2 2 2 2 1 0 0 nan nan 0 0 0 nan nan 0 1 2 2 2 0 nan nan nan nan nan nan nan nan nan nan nan nan nan nan nan nan nan nan nan nan nan nan nan nan nan nan nan nan nan nan nan nan nan nan nan nan nan nan 0 0 0 1 1 2 5 9 9 11 10 9 9 8 7 7 6 5 5 5 5
nan 0 1 2 2 2 3 3 3 3 3 3 2 2 1 0 1 1 0 nan nan 0 1 1 1 2 1 0 nan nan nan nan nan nan nan nan nan nan nan nan nan nan nan nan nan nan nan nan nan nan nan nan nan nan nan nan nan nan nan nan nan nan nan nan nan nan nan 0 1 1 3 6 10 10 11 11 11 11 10 11 11 9 6 4 4 5
nan nan nan 0 0 1 2 3 4 4 5 4 2 2 nan nan 1 1 nan nan nan 0 1 2 2 1 nan nan nan nan nan nan nan nan nan nan nan nan nan nan nan nan nan nan nan nan nan nan nan nan nan nan nan nan nan nan nan nan nan nan nan nan nan nan nan nan nan 0 2 2 4 7 11 11 11 11 12 12 12 16 16 14 8 5 5 7
nan nan nan nan nan nan nan 1 2 2 3 1 nan nan nan nan nan nan nan nan nan 1 2 3 3 1 nan nan 0 0 nan nan nan nan nan nan nan nan nan nan nan nan nan nan nan nan nan nan nan nan nan nan nan nan nan nan nan nan nan nan nan nan nan nan nan nan nan 1 2 2 5 8 11 11 11 12 12 12 15 22 22 22 12 9 9 10
nan nan nan nan nan nan nan nan nan nan nan nan nan nan nan nan nan nan nan nan nan nan 0 1 1 1 1 1 0 0 nan nan nan nan nan nan nan nan nan nan nan nan nan nan nan nan nan nan nan nan nan nan nan nan nan nan nan nan nan nan nan nan nan nan nan 1 1 4 5 5 5 6 8 8 10 11 12 12 16 19 19 19 15 10 10 10
nan nan nan nan nan nan nan nan nan nan nan nan nan nan nan nan nan nan nan nan nan nan nan nan nan nan nan 0 nan nan nan nan nan nan nan nan nan nan nan nan nan nan nan nan nan nan nan nan nan nan nan nan nan nan nan nan nan nan nan nan nan nan nan 0 0 0 2 5 6 6 5 4 6 6 10 10 12 12 15 19 19 21 18 9 9 9
nan nan nan nan nan nan nan nan nan nan nan nan nan nan nan nan nan nan nan nan nan nan nan nan nan nan nan nan nan nan nan nan nan nan nan nan nan nan nan nan nan nan nan nan nan nan nan nan nan nan nan nan nan nan nan nan nan nan nan nan nan nan nan nan nan nan 1 4 4 4 5 5 10 10 11 13 14 14 16 19 19 22 23 13 13 9
nan nan nan nan nan nan nan nan nan nan nan nan nan nan nan nan nan nan nan nan nan nan nan nan nan nan nan nan nan nan nan nan nan nan nan nan nan nan nan nan nan nan nan nan nan nan nan nan nan nan nan nan nan nan nan nan nan nan nan nan nan nan nan nan nan nan nan 1 1 1 3 4 5 5 9 12 13 13 16 21 21 25 25 20 20 12
nan nan nan nan nan nan nan nan nan nan nan nan nan nan nan nan nan nan nan nan nan nan nan nan nan nan nan nan nan nan nan nan nan nan nan nan nan nan nan nan nan nan nan nan nan nan nan nan nan nan nan nan nan nan nan nan nan nan nan nan nan nan nan nan nan nan nan nan nan nan 1 1 4 4 6 8 7 7 11 17 17 21 24 23 23 16
nan nan nan nan nan nan nan nan nan nan nan nan nan nan nan nan nan nan nan nan nan nan nan nan nan nan nan nan nan nan nan nan nan nan nan nan nan nan nan nan nan nan nan nan nan nan nan nan nan nan nan nan nan nan nan nan nan nan nan nan nan nan nan nan nan nan nan nan nan nan nan 0 2 2 5 6 3 3 6 11 11 15 19 23 23 19
nan nan nan nan nan nan nan 0 nan nan nan nan nan nan nan nan nan nan nan nan nan nan nan nan nan nan nan nan nan nan nan nan nan nan nan nan nan nan nan nan nan nan nan nan nan nan nan nan nan nan nan nan nan nan nan nan nan nan nan nan nan nan nan nan nan nan nan nan nan nan nan nan nan nan 2 5 4 4 6 7 7 10 14 16 16 18
nan nan nan nan nan nan nan nan nan nan nan nan nan nan nan nan nan nan nan nan nan nan nan nan nan nan nan nan nan nan nan nan nan nan nan 0 nan nan nan nan nan nan nan nan nan nan nan nan nan nan nan nan nan nan nan nan nan nan nan nan nan nan nan nan nan nan nan nan nan nan nan nan nan nan nan 0 2 2 3 4 4 7 9 10 10 16
nan nan nan nan nan nan nan nan nan nan nan nan nan nan nan nan nan nan nan nan nan nan nan nan nan nan nan nan nan nan nan nan nan nan 0 1 nan nan nan nan nan nan nan nan nan nan nan nan nan nan nan nan nan nan nan nan nan nan nan nan nan nan nan nan nan nan nan nan nan nan nan nan nan nan nan nan 0 0 2 2 2 4 6 6 6 7
nan nan nan nan nan nan nan nan nan nan nan nan nan nan nan nan nan nan nan nan nan nan nan nan nan nan nan nan nan nan nan nan nan nan 0 1 1 1 nan nan nan nan nan nan nan nan nan nan nan nan nan nan nan nan nan nan nan nan nan nan nan nan nan nan nan nan nan nan nan nan nan nan nan nan nan nan nan nan nan 1 1 2 3 4 4 3
nan nan nan nan nan nan nan nan nan nan nan nan nan nan nan nan nan nan nan nan nan nan nan nan nan nan nan nan nan nan nan nan nan nan 0 1 0 0 nan nan nan nan nan nan nan nan nan nan nan nan nan nan nan nan nan nan nan nan nan nan nan nan nan nan nan nan nan nan nan nan nan nan nan nan nan nan nan nan nan nan nan nan 0 0 0 2
1 1 1 nan nan nan nan nan nan nan nan nan nan nan nan nan nan nan nan nan nan nan nan nan nan nan nan nan nan nan nan nan nan nan nan 0 0 0 nan nan nan nan nan nan nan nan nan nan nan nan nan nan nan nan nan nan nan nan nan nan nan nan nan nan nan nan nan nan nan nan nan nan nan nan nan nan nan nan nan nan nan nan nan nan nan nan
4 4 1 nan nan nan nan nan nan nan nan nan nan nan nan nan nan nan nan nan nan nan nan nan nan nan nan nan nan nan nan nan nan nan nan nan nan nan nan nan nan nan nan nan nan nan nan nan nan nan nan nan nan nan nan nan nan nan nan nan nan nan nan nan nan nan nan nan nan nan nan nan nan nan nan nan nan nan nan nan nan nan nan nan nan nan
5 3 nan nan nan nan nan nan nan nan nan nan nan nan nan nan nan nan nan nan nan nan nan nan nan nan nan nan nan nan nan nan nan nan nan nan 0 0 nan nan nan nan nan nan nan nan nan nan nan nan nan nan nan nan nan nan nan nan nan nan nan nan nan nan nan nan nan nan nan nan nan nan nan nan nan nan nan nan nan nan nan nan nan nan nan nan
1 nan nan nan nan nan nan nan nan nan nan nan nan nan nan nan nan nan nan nan nan nan nan nan nan nan nan nan nan nan nan nan nan nan nan nan nan nan nan nan nan nan nan nan nan nan nan nan nan nan nan nan nan nan nan nan nan nan nan nan nan nan nan nan nan nan nan nan nan nan nan nan nan nan nan nan nan nan nan nan nan nan nan nan nan nan
nan nan 1 nan nan nan nan nan nan nan nan nan nan nan nan nan nan nan nan nan nan nan nan nan nan nan nan nan nan nan nan nan nan nan nan nan nan nan nan nan nan nan nan nan nan nan nan nan nan nan nan nan nan nan nan nan nan nan nan nan nan nan nan nan nan nan nan nan nan nan nan nan nan nan nan nan nan nan nan nan nan nan nan nan nan nan
1 2 3 1 1 nan nan 0 nan nan nan nan 0 0 nan nan nan nan nan nan nan nan nan nan nan nan nan nan nan nan nan nan nan nan nan nan nan nan nan nan nan nan nan nan nan nan nan nan nan nan nan nan nan nan nan nan nan nan nan nan nan nan nan nan nan nan nan nan nan nan nan nan nan nan nan nan nan nan nan nan nan nan nan nan nan nan
2 3 4 4 4 2 2 2 1 1 0 0 1 1 1 nan nan nan nan nan nan nan nan nan nan nan nan nan nan nan nan nan nan nan nan nan nan nan nan nan nan nan nan nan nan nan nan nan nan nan nan nan nan nan nan nan nan nan nan nan nan nan nan nan nan nan nan nan nan nan nan nan nan nan nan nan nan nan nan nan nan nan nan nan nan nan
2 2 3 3 3 2 2 2 1 1 0 0 1 1 1 nan nan nan nan nan nan nan nan nan nan nan nan nan nan nan nan nan nan nan nan nan nan nan nan nan nan nan nan nan nan nan nan nan nan nan nan nan nan nan nan nan nan nan nan nan nan nan nan nan nan nan nan nan nan nan nan nan nan nan nan nan nan nan nan nan nan nan nan nan nan nan
3 3 2 2 2 2 1 1 1 1 0 0 1 1 1 nan nan nan nan nan nan nan nan nan nan nan nan nan nan nan nan nan nan nan nan nan nan nan nan nan nan nan nan nan nan nan nan nan nan nan nan 1 nan nan nan nan nan nan nan nan nan nan nan nan nan nan nan nan nan nan nan nan nan nan nan nan nan nan nan nan nan nan nan nan nan nan
CIN
nan nan nan nan nan nan nan nan nan nan nan nan nan nan nan nan nan nan nan nan nan nan nan -0 -0 -0 -9 -12 -7 -7 -4 -1 -0 -0 -0 -0 -0 -0 -0 -0 -0 -0 -0 -0 -0 -0 -0 -0 -0 -0 -0 -0 -0 -0 -0 -0 -0 -0 -0 -0 -0 -0 -0 -0 -0 -0 -0 -0 -0 -0 -0 -0 -0 -0 nan nan nan nan nan nan nan nan nan nan nan nan
nan nan -0 -0 -0 nan nan nan nan nan nan nan nan nan -0 -0 -0 -0 nan -0 -0 -0 -0 -0 -0 -0 -0 -4 -5 -5 -4 -0 -0 -0 -0 -0 -0 -0 -0 -0 -0 -0 -0 -0 -0 -0 -0 -0 -0 -0 -0 -0 -0 -0 -1 -0 -0 -0 -0 -1 -1 -0 -0 -0 -0 -0 -0 -0 -0 -0 -0 -0 nan nan nan nan nan nan nan nan nan nan nan nan nan nan
nan nan -0 -0 -0 -0 -0 -0 -0 -0 nan nan nan nan -0 -0 -0 -0 -0 -0 -0 -0 -0 -1 -1 -0 -0 -3 -2 -2 -1 -0 -0 -0 -0 -0 -0 -0 -0 -0 -0 -0 -0 -0 -0 -0 nan nan nan nan -1 -1 -1 -1 -2 -2 -2 -1 -3 -5 -5 -3 -2 -1 -1 -1 -1 -0 -1 -1 -1 -1 nan nan nan nan nan nan nan nan nan nan nan nan nan nan
-0 nan -0 -0 -0 -0 -0 -0 -0 -0 -0 -0 -0 -0 -0 -0 -0 -0 -0 -0 -0 nan nan nan nan -0 -0 -1 -1 -1 -0 -0 -0 -0 -0 -0 -0 -0 -0 -0 -0 -0 -0 -0 -0 nan nan nan nan nan nan nan nan nan -3 -5 -5 -5 -8 -9 -9 -4 -2 -3 -3 -5 -2 -4 nan nan nan nan nan nan nan nan nan nan nan nan nan nan nan nan nan nan
-0 -0 -0 -0 -0 -0 -0 -0 -0 -0 -0 -0 -0 -0 -0 -0 -0 -0 -0 -0 -0 nan nan nan nan -0 -0 -1 -2 -2 -0 -0 -0 -0 -0 -0 -0 -0 -0 -0 -0 -0 -0 nan nan nan nan nan nan nan nan nan nan nan nan nan nan -10 -11 -11 -11 nan nan nan nan nan nan nan nan nan nan nan nan nan nan nan nan nan nan nan nan nan nan nan nan nan
-0 -0 -0 -0 -0 -0 -0 -0 -0 -0 -0 -0 -0 -0 -0 -0 -0 -0 -0 -0 -0 -0 -0 -0 -0 -0 -0 -0 -1 -1 -0 -0 -0 -0 -0 -0 -0 -0 -0 -0 -0 -0 -0 -0 -0 nan nan nan nan nan nan nan nan nan nan nan nan nan nan nan nan nan nan nan nan nan nan nan nan nan nan nan nan nan nan nan nan nan nan nan nan nan nan nan nan nan
nan -0 -0 -0 -0 -0 -0 -0 -0 -0 -0 -0 -0 -0 -0 -0 -0 -0 -0 -0 -0 -0 -0 -0 -0 -0 -0 -0 -0 -0 -0 -0 -0 -0 -0 -0 -0 -0 -0 -0 -0 -0 -0 -0 -0 -0 -0 -0 -0 nan nan nan nan nan nan nan nan nan nan nan nan nan nan nan nan nan nan nan nan nan nan nan nan nan nan nan nan nan nan nan nan nan nan nan nan nan
nan -0 -0 -0 -0 -0 -0 -0 -0 -0 -0 -0 -0 -0 -0 -0 -0 -0 -0 -0 -0 -0 -0 -0 -0 -0 -0 nan nan nan -0 -0 -0 -0 -0 -0 -0 -0 -0 -0 -0 -0 -0 -0 -0 -0 -0 -0 -0 -0 -1 -1 nan nan nan nan nan nan nan nan nan nan nan nan nan nan nan nan nan nan nan nan nan nan nan nan nan nan nan nan nan nan nan nan nan nan
-0 -0 -0 -0 -0 -0 -0 -0 -0 -0 -0 -0 -0 -0 -0 -0 -0 -0 -0 -0 -0 -0 -0 -0 -0 -0 -0 nan nan nan -0 -0 -0 -0 -0 -0 -0 -0 -0 -0 -0 -0 -0 -0 -0 -0 -0 -0 -0 -0 -0 -0 nan nan nan nan nan nan nan nan nan nan nan nan nan nan nan nan nan nan nan nan nan nan nan nan nan nan nan nan nan nan nan nan nan nan
-0 -0 -0 -0 -0 -0 -0 -0 -0 -0 -0 -0 -0 -0 -0 -0 -0 -0 -0 -0 -0 -0 -0 -0 -0 -0 -0 nan -0 -0 -0 -0 -0 -0 -0 nan -0 -0 -0 -0 -0 -0 -0 -0 -0 -0 -0 -0 -0 -0 -0 -0 -1 -1 nan nan nan nan nan nan nan nan nan nan nan nan nan nan nan nan nan nan nan nan nan nan nan nan nan nan nan nan nan nan nan nan
-0 -0 -0 -0 -0 -0 -0 -0 -0 -0 -0 -0 -0 -0 -0 -0 -0 -0 -0 -0 -0 -0 -0 -0 -0 -0 -0 -0 -0 -0 -0 -0 -0 -0 -0 nan nan nan nan nan nan -2 -1 -0 -0 -0 -0 -0 -0 -0 -0 -1 -2 -2 nan nan nan nan nan nan nan nan nan nan nan nan nan nan nan nan nan nan nan nan nan nan nan nan nan nan nan nan nan nan nan nan
-0 -0 -0 -0 -0 -0 -0 -0 -0 -0 -0 -0 -0 -0 -0 -0 -0 -0 -0 -0 -0 -0 -0 -0 -0 -0 -0 -0 -0 -0 nan nan nan nan nan nan nan nan nan nan nan nan nan -1 -1 -4 -2 -2 -2 -0 -0 -0 -3 -3 -5 nan nan nan nan nan nan nan nan nan nan nan nan nan nan nan nan nan nan nan nan nan nan nan nan nan nan nan nan nan nan nan
-0 -0 -0 -0 -0 -0 -0 -0 -0 -0 -0 -0 -0 -0 -0 -0 -0 -0 -0 -0 -0 -0 -0 -0 -0 -0 -0 -0 -0 -0 -0 nan nan nan -0 -0 -0 -0 nan nan nan nan nan nan nan nan nan -1 -1 -0 -0 -1 -1 -1 -4 nan nan nan nan nan nan nan nan nan nan nan nan nan nan nan nan nan nan nan nan nan nan nan nan nan nan nan nan nan nan nan
-0 -0 -0 -0 -0 -0 -0 -0 -0 -0 -0 -0 -0 -0 -0 -0 -0 -0 -0 -0 -0 -0 nan -0 -0 -0 -0 -0 -0 -0 -0 nan -0 -0 -0 -0 -0 -0 nan nan nan -0 nan -0 -0 nan nan nan nan -0 -0 -0 -0 -0 -0 nan nan nan nan nan nan nan nan nan nan nan nan nan nan nan nan nan nan nan nan nan nan nan nan nan nan nan nan nan nan nan
-0 -0 -0 -0 -0 -0 -0 -0 -0 -0 -0 -0 -0 -0 -0 -0 -0 -0 -0 -0 -0 -0 -0 -0 -0 -0 -0 -0 -0 -0 -0 -0 -0 -0 -0 -0 -0 -0 nan nan nan nan nan -0 -0 nan nan nan nan nan -0 -0 -0 -0 -0 -0 -0 nan nan nan nan nan nan nan nan nan nan nan nan nan nan nan nan nan nan nan nan nan nan nan nan nan nan nan nan nan
-0 -0 -0 -0 -0 -0 -0 -0 -0 -0 -0 -0 -0 -0 -0 -0 -0 -0 -0 -0 -0 -0 -0 -0 -0 -0 -0 -0 -0 -0 -0 -0 nan nan nan -0 -0 -0 -0 -0 -0 -0 -0 nan nan nan nan nan nan nan nan -0 -0 -0 -0 -0 -0 -0 nan nan nan nan nan nan nan nan nan nan nan nan nan nan nan nan nan nan nan nan nan nan nan nan nan nan nan nan
-0 -0 -0 -0 -0 -0 -0 -0 -0 -0 -0 -0 -0 -0 -0 -0 -0 -0 -0 nan nan -0 -0 -0 -0 -0 -0 -0 -0 -0 -0 -0 nan nan -0 -0 -0 -0 nan nan nan -0 nan nan nan nan nan nan nan nan nan nan nan nan nan -0 -0 -0 -0 -0 -0 -0 -0 -0 -0 nan nan nan nan nan nan nan nan nan nan nan nan nan nan nan nan nan nan nan nan nan
-0 -0 -0 -0 -0 -0 -0 -0 -0 -0 -0 -0 -0 -0 -0 nan -1 -1 -0 nan nan -0 -0 nan nan nan -0 -0 -0 -0 -0 -0 -0 -0 -0 -0 nan nan nan nan nan nan nan nan nan nan nan nan nan nan nan nan nan nan nan nan nan -1 -0 -0 -0 -0 -0 -0 -0 -0 nan nan nan nan nan nan nan nan nan nan nan nan nan nan nan nan nan nan nan nan
-0 -0 -0 -0 -0 -0 -0 -0 -0 -0 -0 -0 -0 -0 -0 -0 nan nan -0 nan nan -0 -0 nan nan nan nan -0 -0 -0 -0 -0 -0 -0 -0 -0 nan nan nan nan nan nan nan nan nan nan nan nan nan nan nan nan nan nan nan nan nan nan -1 -0 -0 -0 -0 -0 -0 nan nan nan -0 -0 -0 -0 -0 -0 nan nan nan nan nan nan nan nan nan nan nan nan
-0 -0 -0 -0 -0 -0 -0 -0 -0 -0 -0 -0 -0 -0 -0 -0 -0 -0 -0 nan nan nan nan -1 -1 nan nan -0 -0 -0 -0 -0 -0 -0 -0 -0 nan nan nan nan nan nan nan nan nan nan nan nan nan nan nan nan nan nan nan nan nan nan nan nan nan nan nan nan nan nan nan nan nan nan -0 -0 -0 -0 -0 nan nan nan nan nan nan nan nan nan nan -0
-0 -0 -0 -0 -0 -0 -0 -0 -0 -0 -0 -0 -0 -0 -0 -0 -0 -0 nan nan nan nan nan nan nan nan nan -0 nan nan nan -0 nan nan -0 -1 nan nan nan nan nan nan nan nan nan nan nan nan nan nan nan nan nan nan nan nan nan nan nan nan nan nan nan nan nan nan nan nan nan nan nan -0 -0 -0 -0 -0 -0 -0 -0 -0 -0 -0 -0 -0 -0 -0
-0 -0 -0 -0 -0 -0 -0 -0 -0 -0 -0 -0 -0 -0 -0 -0 -0 -0 -0 -0 -0 -0 -0 nan nan nan nan nan nan nan nan -0 -0 -0 nan nan nan nan nan nan nan nan nan nan nan nan nan nan nan nan nan nan nan nan nan nan nan nan nan nan nan nan nan nan nan nan nan nan nan nan nan -0 -0 -0 -0 -0 -0 -0 -0 -0 -0 -0 -0 -0 -0 -0
-0 -0 -0 nan nan -0 -0 -0 -0 -0 -0 -0 -0 -0 -0 -0 -0 -0 -0 -0 -0 -1 nan nan nan nan nan nan nan nan nan nan -0 -0 -0 nan -0 -0 nan nan nan nan nan nan nan nan nan nan nan nan nan nan nan nan nan nan nan nan nan nan nan nan nan nan nan nan nan nan nan nan nan -0 -0 -0 -0 -0 -0 -0 -0 -0 -0 -0 -0 -0 -0 -0
nan nan nan nan nan nan -0 -0 -0 -0 -0 -0 nan nan -0 nan nan nan -0 nan nan nan nan nan nan nan nan nan nan nan nan nan nan nan -0 -0 nan nan nan nan nan nan nan nan nan nan nan nan nan nan nan nan nan nan nan nan nan nan nan nan nan nan nan nan nan nan nan nan nan nan nan -0 -0 -0 -0 -0 -0 -0 -0 -0 -0 -0 -0 -0 -0 -0
nan nan nan nan nan nan nan nan -0 -0 -0 nan nan nan nan nan nan nan nan nan nan nan nan nan nan nan nan nan nan nan nan nan nan nan -0 -0 nan nan nan nan nan nan nan nan nan nan nan nan nan nan nan nan nan nan nan nan nan nan nan nan nan nan nan nan nan nan nan nan nan nan -0 -0 -0 -0 -0 -0 -0 -0 -0 -0 -0 -0 -0 -0 -0 -0
nan nan nan nan nan nan nan nan -0 -0 -0 nan nan nan nan nan nan nan nan nan nan nan nan -0 -0 -0 nan nan nan nan nan nan nan nan nan nan nan nan nan nan nan nan nan nan nan nan nan nan nan nan nan nan nan nan nan nan nan nan nan nan nan nan nan nan nan nan nan nan -0 -0 -0 -0 -0 -0 -0 -0 -0 -0 -0 -0 -0 -0 -0 -0 -0 -0
-0 -0 -0 -0 -0 nan -0 -0 -0 -0 -0 nan nan nan nan nan nan nan nan nan nan nan -0 -0 -0 -0 nan nan nan nan nan nan nan nan nan nan nan nan nan nan nan nan nan nan nan nan nan nan nan nan nan nan nan nan nan nan nan nan nan nan nan nan nan -0 -0 -0 -0 -0 -0 -0 -0 -0 -0 -0 -0 -0 -0 -0 -0 -0 -0 -0 -0 -0 -0 -0
-0 -0 -0 -0 -0 -0 -0 -0 -0 -0 -0 -0 -0 -0 nan nan -0 -0 -0 nan nan -0 -0 -0 -0 -0 -0 nan nan nan nan nan nan nan nan nan nan nan nan nan nan nan nan nan nan nan nan nan nan nan nan nan nan nan nan nan nan nan nan nan nan nan nan nan nan -0 -0 -0 -0 -0 -0 -0 -0 -0 -0 -0 -0 -0 -0 -0 -0 -0 -0 -0 -0 -0
nan -0 -0 -0 -0 -0 -0 -0 -0 -0 -0 -0 -0 -0 -0 -0 -0 -0 -0 nan nan -0 -0 -0 -0 -0 -0 -0 nan nan nan nan nan nan nan nan nan nan nan nan nan nan nan nan nan nan nan nan nan nan nan nan nan nan nan nan nan nan nan nan nan nan nan nan nan nan nan -0 -0 -0 -0 -0 -0 -0 -0 -0 -0 -0 -0 -0 -0 -0 -0 -0 -0 -0
nan nan nan -0 -0 -0 -0 -0 -0 -0 -0 -0 -0 -0 nan nan -0 -0 nan nan nan -0 -0 -0 -0 -0 nan nan nan nan nan nan nan nan nan nan nan nan nan nan nan nan nan nan nan nan nan nan nan nan nan nan nan nan nan nan nan nan nan nan nan nan nan nan nan nan nan -0 -0 -0 -0 -0 -0 -0 -0 -0 -0 -0 -0 -0 -0 -0 -0 -0 -0 -0
nan nan nan nan nan nan nan -0 -0 -0 -0 -0 nan nan nan nan nan nan nan nan nan -0 -0 -0 -0 -0 nan nan -0 -0 nan nan nan nan nan nan nan nan nan nan nan nan nan nan nan nan nan nan nan nan nan nan nan nan nan nan nan nan nan nan nan nan nan nan nan nan nan -0 -0 -0 -0 -0 -0 -0 -0 -0 -0 -0 -0 -0 -0 -0 -0 -0 -0 -0
nan nan nan nan nan nan nan nan nan nan nan nan nan nan nan nan nan nan nan nan nan nan -0 -0 -0 -0 -0 -0 -0 -0 nan nan nan nan nan nan nan nan nan nan nan nan nan nan nan nan nan nan nan nan nan nan nan nan nan nan nan nan nan nan nan nan nan nan nan -0 -0 -0 -0 -0 -0 -0 -0 -0 -0 -0 -0 -0 -0 -0 -0 -0 -0 -0 -0 -0
nan nan nan nan nan nan nan nan nan nan nan nan nan nan nan nan nan nan nan nan nan nan nan nan nan nan nan -0 nan nan nan nan nan nan nan nan nan nan nan nan nan nan nan nan nan nan nan nan nan nan nan nan nan nan nan nan nan nan nan nan nan nan nan -0 -0 -0 -0 -0 -0 -0 -0 -1 -0 -0 -0 -0 -0 -0 -0 -0 -0 -0 -0 -0 -0 -0
nan nan nan nan nan nan nan nan nan nan nan nan nan nan nan nan nan nan nan nan nan nan nan nan nan nan nan nan nan nan nan nan nan nan nan nan nan nan nan nan nan nan nan nan nan nan nan nan nan nan nan nan nan nan nan nan nan nan nan nan nan nan nan nan nan nan -0 -0 -0 -0 -0 -0 -0 -0 -0 -0 -0 -0 -0 -0 -0 -0 -0 -0 -0 -0
nan nan nan nan nan nan nan nan nan nan nan nan nan nan nan nan nan nan nan nan nan nan nan nan nan nan nan nan nan nan nan nan nan nan nan nan nan nan nan nan nan nan nan nan nan nan nan nan nan nan nan nan nan nan nan nan nan nan nan nan nan nan nan nan nan nan nan -0 -0 -0 -0 -0 -0 -0 -0 -0 -0 -0 -0 -0 -0 -0 -0 -0 -0 -0
nan nan nan nan nan nan nan nan nan nan nan nan nan nan nan nan nan nan nan nan nan nan nan nan nan nan nan nan nan nan nan nan nan nan nan nan nan nan nan nan nan nan nan nan nan nan nan nan nan nan nan nan nan nan nan nan nan nan nan nan nan nan nan nan nan nan nan nan nan nan -0 -0 -0 -0 -0 -0 -0 -0 -0 -0 -0 -0 -0 -0 -0 -0
nan nan nan nan nan nan nan nan nan nan nan nan nan nan nan nan nan nan nan nan nan nan nan nan nan nan nan nan nan nan nan nan nan nan nan nan nan nan nan nan nan nan nan nan nan nan nan nan nan nan nan nan nan nan nan nan nan nan nan nan nan nan nan nan nan nan nan nan nan nan nan -0 -0 -0 -0 -0 -0 -0 -0 -0 -0 -0 -0 -0 -0 -0
nan nan nan nan nan nan nan -0 nan nan nan nan nan nan nan nan nan nan nan nan nan nan nan nan nan nan nan nan nan nan nan nan nan nan nan nan nan nan nan nan nan nan nan nan nan nan nan nan nan nan nan nan nan nan nan nan nan nan nan nan nan nan nan nan nan nan nan nan nan nan nan nan nan nan -0 -0 -0 -0 -0 -0 -0 -0 -0 -0 -0 -0
nan nan nan nan nan nan nan nan nan nan nan nan nan nan nan nan nan nan nan nan nan nan nan nan nan nan nan nan nan nan nan nan nan nan nan -0 nan nan nan nan nan nan nan nan nan nan nan nan nan nan nan nan nan nan nan nan nan nan nan nan nan nan nan nan nan nan nan nan nan nan nan nan nan nan nan -0 -0 -0 -0 -0 -0 -0 -0 -0 -0 -0
nan nan nan nan nan nan nan nan nan nan nan nan nan nan nan nan nan nan nan nan nan nan nan nan nan nan nan nan nan nan nan nan nan nan -0 -0 nan nan nan nan nan nan nan nan nan nan nan nan nan nan nan nan nan nan nan nan nan nan nan nan nan nan nan nan nan nan nan nan nan nan nan nan nan nan nan nan -0 -0 -0 -0 -0 -0 -0 -0 -0 -0
nan nan nan nan nan nan nan nan nan nan nan nan nan nan nan nan nan nan nan nan nan nan nan nan nan nan nan nan nan nan nan nan nan nan -0 -0 -0 -0 nan nan nan nan nan nan nan nan nan nan nan nan nan nan nan nan nan nan nan nan nan nan nan nan nan nan nan nan nan nan nan nan nan nan nan nan nan nan nan nan nan -0 -0 -0 -0 -0 -0 -0
nan nan nan nan nan nan nan nan nan nan nan nan nan nan nan nan nan nan nan nan nan nan nan nan nan nan nan nan nan nan nan nan nan nan -0 -0 -0 -0 nan nan nan nan nan nan nan nan nan nan nan nan nan nan nan nan nan nan nan nan nan nan nan nan nan nan nan nan nan nan nan nan nan nan nan nan nan nan nan nan nan nan nan nan -0 -0 -0 -0
-0 -0 -0 nan nan nan nan nan nan nan nan nan nan nan nan nan nan nan nan nan nan nan nan nan nan nan nan nan nan nan nan nan nan nan nan -0 -0 -0 nan nan nan nan nan nan nan nan nan nan nan nan nan nan nan nan nan nan nan nan nan nan nan nan nan nan nan nan nan nan nan nan nan nan nan nan nan nan nan nan nan nan nan nan nan nan nan nan
-0 -0 -0 nan nan nan nan nan nan nan nan nan nan nan nan nan nan nan nan nan nan nan nan nan nan nan nan nan nan nan nan nan nan nan nan nan nan nan nan nan nan nan nan nan nan nan nan nan nan nan nan nan nan nan nan nan nan nan nan nan nan nan nan nan nan nan nan nan nan nan nan nan nan nan nan nan nan nan nan nan nan nan nan nan nan nan
-0 -0 nan nan nan nan nan nan nan nan nan nan nan nan nan nan nan nan nan nan nan nan nan nan nan nan nan nan nan nan nan nan nan nan nan nan -0 -0 nan nan nan nan nan nan nan nan nan nan nan nan nan nan nan nan nan nan nan nan nan nan nan nan nan nan nan nan nan nan nan nan nan nan nan nan nan nan nan nan nan nan nan nan nan nan nan nan
-0 nan nan nan nan nan nan nan nan nan nan nan nan nan nan nan nan nan nan nan nan nan nan nan nan nan nan nan nan nan nan nan nan nan nan nan nan nan nan nan nan nan nan nan nan nan nan nan nan nan nan nan nan nan nan nan nan nan nan nan nan nan nan nan nan nan nan nan nan nan nan nan nan nan nan nan nan nan nan nan nan nan nan nan nan nan
nan nan -0 nan nan nan nan nan nan nan nan nan nan nan nan nan nan nan nan nan nan nan nan nan nan nan nan nan nan nan nan nan nan nan nan nan nan nan nan nan nan nan nan nan nan nan nan nan nan nan nan nan nan nan nan nan nan nan nan nan nan nan nan nan nan nan nan nan nan nan nan nan nan nan nan nan nan nan nan nan nan nan nan nan nan nan
-0 -0 -0 -0 -0 nan nan -0 nan nan nan nan -0 -0 nan nan nan nan nan nan nan nan nan nan nan nan nan nan nan nan nan nan nan nan nan nan nan nan nan nan nan nan nan nan nan nan nan nan nan nan nan nan nan nan nan nan nan nan nan nan nan nan nan nan nan nan nan nan nan nan nan nan nan nan nan nan nan nan nan nan nan nan nan nan nan nan
-0 -0 -0 -0 -0 -0 -0 -0 -0 -0 -0 -0 -0 -0 -0 nan nan nan nan nan nan nan nan nan nan nan nan nan nan nan nan nan nan nan nan nan nan nan nan nan nan nan nan nan nan nan nan nan nan nan nan nan nan nan nan nan nan nan nan nan nan nan nan nan nan nan nan nan nan nan nan nan nan nan nan nan nan nan nan nan nan nan nan nan nan nan
-0 -0 -0 -0 -0 -0 -0 -0 -0 -0 -0 -0 -0 -0 -0 nan nan nan nan nan nan nan nan nan nan nan nan nan nan nan nan nan nan nan nan nan nan nan nan nan nan nan nan nan nan nan nan nan nan nan nan nan nan nan nan nan nan nan nan nan nan nan nan nan nan nan nan nan nan nan nan nan nan nan nan nan nan nan nan nan nan nan nan nan nan nan
-0 -0 -0 -0 -0 -0 -0 -0 -0 -0 -0 -0 -0 -0 -0 nan nan nan nan nan nan nan nan nan nan nan nan nan nan nan nan nan nan nan nan nan nan nan nan nan nan nan nan nan nan nan nan nan nan nan nan -0 nan nan nan nan nan nan nan nan nan nan nan nan nan nan nan nan nan nan nan nan nan nan nan nan nan nan nan nan nan nan nan nan nan nan
Wind_Speed
1 1 1 1 2 2 2 2 2 3 3 2 1 1 1 2 3 4 4 4 4 5 5 5 5 4 4 5 7 9 10 11 11 12 12 11 11 10 10 10 9 9 8 7 6 5 4 4 4 4 5 5 6 6 7 8 8 8 7 7 6 6 7 8 8 9 9 9 9 9 9 9 9 9 8 8 8 7 6 6 5 4 4 3 2 1
0 0 0 1 2 2 2 2 2 3 3 3 2 1 1 2 3 3 3 4 4 4 4 4 4 4 5 5 7 10 11 12 12 12 12 12 11 11 10 10 9 9 8 7 6 5 5 4 4 4 4 4 4 5 6 6 6 6 6 6 5 5 6 7 7 8 8 8 8 8 9 9 9 9 8 8 7 6 6 5 4 4 3 2 1 1
1 0 1 1 1 2 2 2 2 3 4 3 2 2 2 3 3 2 2 3 2 2 2 2 2 3 5 5 7 10 11 12 12 12 12 12 11 11 10 10 9 9 8 8 7 6 5 5 4 4 4 3 3 3 3 3 3 4 4 4 5 5 6 6 6 7 7 7 7 8 9 9 9 8 7 7 6 6 5 5 4 3 3 2 1 1
1 0 0 1 1 2 3 2 2 2 3 3 2 2 3 3 2 2 1 1 0 1 2 3 2 3 3 4 6 9 12 12 12 12 12 12 11 11 10 10 10 9 9 8 7 6 5 5 5 4 4 4 4 3 3 3 3 3 4 6 7 8 9 9 9 9 9 9 9 9 9 9 8 7 7 6 6 5 5 4 4 3 2 1 0 1
1 0 0 0 1 2 2 2 1 1 1 2 2 2 2 2 1 0 1 1 1 2 2 3 3 3 2 2 5 8 11 12 12 12 12 12 12 11 11 10 10 9 9 8 7 6 6 5 5 5 5 5 5 5 5 6 6 7 8 10 11 11 12 12 11 11 11 10 10 9 9 8 7 7 6 6 5 5 4 4 3 2 1 0 0 1
0 1 0 1 1 1 1 1 1 1 1 1 1 1 0 0 1 1 1 2 2 2 2 2 3 3 3 3 4 8 11 12 12 12 12 12 12 11 11 10 10 10 9 8 7 7 6 6 6 6 6 6 6 7 7 8 8 9 11 12 12 12 12 12 12 11 11 10 10 9 8 8 7 7 6 5 5 4 4 3 2 2 1 0 1 2
0 1 1 1 1 1 1 1 1 1 1 1 1 1 1 1 2 2 2 2 2 2 2 2 2 3 3 3 2 7 10 11 12 12 12 12 12 11 11 11 10 10 9 8 7 7 6 6 6 6 6 6 7 7 8 8 9 10 11 12 12 12 12 11 11 11 10 10 9 8 8 7 7 6 6 5 4 4 3 2 1 1 1 1 2 2
1 1 1 1 1 1 1 2 2 2 2 2 1 1 1 1 1 2 2 2 2 2 1 1 2 2 3 3 1 3 7 8 9 9 10 10 10 11 11 11 10 10 9 8 7 7 6 6 5 5 6 6 7 7 8 8 9 10 11 11 11 11 11 11 10 10 9 9 8 8 7 7 6 6 5 4 4 3 2 1 1 1 2 2 3 3
2 1 2 2 2 2 2 2 2 2 2 2 2 2 2 2 1 1 1 1 2 2 1 1 1 2 2 3 3 2 4 5 5 5 6 7 7 8 9 10 10 9 9 8 7 7 6 6 5 5 5 6 6 7 7 8 8 9 10 10 10 10 10 9 9 9 8 8 7 7 6 6 5 5 4 3 3 2 2 2 2 3 3 3 4 4
3 3 2 2 2 2 2 2 2 2 2 2 2 2 2 2 2 2 1 1 1 1 1 1 1 2 2 3 3 3 3 4 5 5 5 5 6 7 7 7 8 8 8 8 7 6 6 5 5 5 5 5 6 6 7 8 8 8 9 9 9 9 8 8 8 8 7 7 6 6 5 4 4 3 3 2 2 1 2 2 3 4 4 5 5 5
3 3 2 2 2 2 2 1 0 1 1 1 1 2 2 2 2 2 3 2 2 1 1 2 2 2 2 2 3 3 2 3 4 5 5 5 5 6 5 5 6 6 7 7 6 6 5 5 5 5 5 5 6 7 7 8 8 8 8 8 7 7 7 7 7 6 6 6 5 4 4 3 2 2 1 0 1 1 2 3 4 4 5 5 6 6
2 2 1 1 1 1 1 0 0 0 1 1 2 2 3 3 3 3 3 3 3 2 1 1 2 2 2 2 3 3 2 2 3 3 4 4 4 4 4 3 4 4 5 4 4 4 4 3 4 4 5 5 6 7 8 8 8 8 7 7 6 6 6 6 5 5 5 4 4 3 2 2 1 1 1 1 2 2 3 4 4 5 5 6 6 7
2 1 1 2 2 2 2 2 1 1 2 2 3 3 3 3 2 2 2 1 2 2 2 2 2 2 2 2 2 2 2 1 2 2 2 2 3 3 2 2 2 2 3 3 2 2 2 2 3 4 4 5 5 7 8 8 8 8 7 7 6 5 5 5 4 4 4 3 3 2 2 2 2 2 2 2 3 3 4 4 5 5 5 6 6 7
1 1 2 2 2 2 2 2 2 3 3 3 3 2 1 1 1 1 1 1 2 1 2 2 2 1 1 1 1 2 2 1 1 2 2 2 2 2 1 1 2 2 2 2 2 2 1 1 2 3 3 4 5 6 8 8 9 8 8 7 6 5 5 4 4 3 3 3 3 3 3 3 3 3 3 3 4 4 5 5 5 5 6 6 7 7
2 1 2 2 2 2 2 2 2 3 3 2 0 1 1 1 2 2 2 2 2 1 2 2 1 1 1 1 1 1 2 1 1 2 2 1 2 2 2 1 1 1 1 2 2 2 2 1 1 2 3 4 5 6 7 8 8 8 8 7 6 5 4 4 3 3 3 3 4 4 4 4 4 4 4 4 5 5 5 5 6 6 6 6 7 7
2 2 2 3 2 2 1 1 2 2 2 1 1 1 1 2 2 3 3 3 2 2 2 2 2 1 1 1 1 0 1 1 0 2 2 1 1 2 2 0 1 2 1 2 2 2 2 1 1 1 3 4 6 7 7 8 8 8 7 7 6 5 5 4 4 4 4 4 5 5 5 5 5 5 5 5 5 5 6 6 6 6 6 6 7 7
2 2 2 3 2 2 1 1 1 1 1 1 1 1 2 2 2 3 3 3 3 2 3 3 3 2 1 1 1 1 0 1 0 1 2 1 1 1 2 1 1 2 2 2 2 2 2 2 1 1 2 4 5 7 7 8 8 8 7 7 6 6 5 5 5 5 5 6 6 6 6 6 6 6 6 6 6 6 6 6 6 6 6 6 7 7
2 2 2 2 2 2 1 1 1 1 1 1 1 1 1 1 2 2 3 3 3 3 3 3 3 2 2 2 1 1 1 0 1 1 2 1 1 1 1 1 1 2 3 3 2 2 2 2 2 2 2 4 5 6 7 7 7 7 7 7 7 6 6 6 6 6 6 7 7 7 7 7 7 7 6 6 6 6 6 6 6 6 6 7 7 7
2 2 2 2 2 1 1 1 1 1 1 1 1 1 1 1 1 2 3 3 3 4 4 3 3 2 2 2 1 1 0 1 1 2 2 2 2 1 0 1 1 2 3 3 3 2 1 1 1 2 2 3 4 5 6 7 7 7 7 7 7 7 7 7 7 7 7 8 8 8 8 8 8 7 7 7 7 6 6 6 6 6 6 7 7 7
2 1 2 2 2 2 1 1 1 2 2 2 2 2 2 1 2 2 2 3 3 3 3 3 3 2 1 1 2 1 0 1 2 3 3 3 2 2 1 1 2 2 3 3 2 2 1 1 1 1 2 3 4 5 6 7 7 7 7 7 8 8 7 8 8 8 8 8 9 9 9 9 8 8 7 7 7 7 6 6 6 6 7 7 7 7
2 1 1 1 1 2 2 1 1 1 2 2 2 2 2 2 2 2 2 2 2 2 2 3 2 1 1 1 1 1 0 1 2 3 3 2 2 2 1 1 2 3 3 3 2 2 2 2 2 2 2 3 4 5 6 7 8 8 8 8 8 8 8 8 8 8 9 9 9 9 10 9 9 9 8 8 7 7 7 7 6 7 7 7 7 7
1 1 1 1 1 2 2 1 1 1 3 3 3 2 2 3 3 3 3 3 3 3 3 1 1 2 2 2 1 1 1 1 2 2 1 2 2 2 2 1 2 3 4 3 3 2 2 2 2 2 3 4 5 6 7 8 8 9 9 9 9 9 9 9 9 9 9 9 10 10 10 10 10 9 8 8 8 7 7 7 7 7 7 7 6 7
1 1 1 1 1 2 2 2 1 1 2 3 2 2 2 2 3 3 3 3 3 2 2 2 3 3 2 2 1 1 1 1 2 1 1 2 2 2 3 1 2 3 4 3 3 3 2 2 2 2 3 5 6 7 8 8 9 9 10 10 10 10 10 10 9 10 10 10 10 10 11 10 10 9 9 8 8 7 7 7 7 7 7 6 6 6
2 2 2 2 2 2 2 2 1 1 1 1 1 1 1 1 1 1 1 1 2 2 3 3 2 2 1 1 1 1 0 1 1 1 1 2 2 1 2 2 2 3 4 2 2 2 2 2 2 2 2 5 6 7 8 9 9 10 10 10 10 10 10 10 10 10 10 10 10 11 11 11 10 10 9 9 8 8 8 7 7 7 7 6 6 6
2 2 1 1 1 1 2 2 1 0 1 2 2 2 2 3 3 3 3 3 3 3 3 2 2 1 1 1 1 1 1 0 1 1 1 2 1 1 2 2 3 4 4 2 2 2 2 2 3 3 2 4 6 8 9 9 10 10 10 11 11 11 11 11 10 10 10 10 11 11 11 11 10 10 10 9 9 8 8 8 8 7 7 6 6 6
2 2 2 1 1 1 1 1 1 1 2 2 2 3 3 3 3 2 2 2 2 3 3 2 2 2 2 1 1 1 1 1 1 1 1 1 1 1 2 2 2 3 3 1 1 1 2 3 3 3 3 4 5 7 8 9 9 10 10 11 11 11 11 11 11 11 11 11 11 11 11 11 11 10 10 10 9 9 9 8 8 8 7 7 6 6
6 5 4 3 3 2 2 2 2 3 3 3 3 3 3 2 2 2 2 2 2 3 3 3 3 3 2 2 1 2 2 2 2 2 2 2 1 1 2 1 2 2 2 1 1 2 2 3 3 3 3 3 4 5 7 8 8 9 10 10 11 11 11 11 11 11 11 11 11 11 11 11 11 11 11 10 10 9 9 9 9 8 8 7 6 5
7 7 7 6 5 4 4 4 4 4 4 4 4 4 3 2 2 2 2 2 2 3 3 3 3 2 2 2 2 2 2 2 3 3 2 2 2 1 2 1 1 1 1 1 1 2 2 3 3 3 3 3 3 3 5 6 7 8 8 9 9 10 10 11 11 11 11 11 12 12 12 11 11 11 11 11 10 10 10 9 9 8 8 6 5 4
6 6 7 7 6 6 5 5 5 5 5 5 4 3 1 0 1 1 1 2 2 2 2 3 2 2 1 1 1 1 2 3 3 4 3 2 2 1 2 1 1 1 1 1 1 2 2 3 2 2 2 2 2 3 3 4 5 6 6 7 8 8 9 10 11 11 12 12 12 12 12 12 12 11 11 11 11 10 10 10 9 8 7 6 5 4
3 4 5 5 5 5 5 5 5 5 6 5 4 3 2 1 1 1 1 1 2 2 2 2 2 1 1 1 1 1 2 3 4 4 4 3 2 1 2 1 1 1 1 1 1 2 2 2 2 2 2 2 2 2 2 3 4 4 4 5 6 7 9 10 11 11 12 13 13 12 12 12 12 11 11 11 11 11 11 11 10 8 5 5 4 4
2 2 3 3 3 3 3 3 4 4 4 4 3 3 2 2 1 1 0 1 1 2 2 2 2 1 2 1 1 2 1 2 3 4 4 3 2 1 2 2 1 1 1 1 1 1 1 2 2 2 2 2 2 2 2 3 3 3 3 4 5 6 8 9 10 10 11 12 12 12 12 12 11 11 11 11 11 11 12 12 11 8 5 5 5 5
2 2 2 2 2 2 2 2 2 2 3 2 2 2 2 2 2 1 1 0 1 1 2 1 1 1 2 2 2 1 1 2 3 4 4 2 1 1 1 1 2 1 1 1 2 2 2 0 2 2 2 2 2 2 2 2 3 3 3 3 4 5 7 7 8 8 9 10 10 10 10 11 10 11 11 11 11 12 12 12 11 9 6 5 5 5
1 1 1 1 1 1 1 1 1 2 2 2 2 2 2 2 2 2 1 1 1 1 1 1 1 1 2 2 2 1 1 2 2 4 4 2 1 1 1 1 2 2 1 1 1 2 2 1 0 1 1 2 2 2 2 3 3 3 3 3 4 4 5 5 6 6 6 6 6 7 7 8 8 9 10 11 11 12 12 13 12 10 7 5 5 5
1 1 1 1 1 1 1 1 1 2 2 2 2 2 2 2 2 2 2 2 2 2 2 1 1 1 1 2 2 1 1 2 3 4 4 2 1 1 1 2 2 2 2 1 1 1 1 1 1 0 1 1 2 2 2 3 3 3 3 3 3 4 4 4 5 5 5 4 4 4 5 5 5 7 9 10 11 12 12 13 13 12 10 7 5 5
1 1 1 1 1 1 1 1 2 2 2 1 2 2 2 2 2 2 2 2 2 2 2 2 1 1 1 1 1 1 0 2 3 3 4 2 1 1 1 2 2 2 2 2 2 2 2 2 1 1 1 1 2 2 2 3 3 2 2 3 3 3 3 3 4 4 4 4 4 4 4 4 4 5 7 8 9 10 11 12 13 13 12 10 8 6
2 2 2 2 1 1 1 1 1 1 2 1 1 1 1 1 1 2 2 2 2 2 2 2 2 2 2 1 2 2 1 2 2 3 4 3 2 1 1 2 2 2 3 3 3 2 2 2 2 2 2 2 2 2 2 3 3 3 3 3 3 3 3 3 3 3 4 4 4 4 4 4 5 5 5 6 7 8 9 11 12 13 13 12 11 9
2 2 2 2 2 2 1 1 1 1 1 1 1 1 1 1 1 1 2 2 2 1 1 1 1 2 2 2 2 2 2 1 2 3 4 3 2 2 1 1 1 2 2 3 2 2 2 2 2 2 3 3 3 2 2 3 3 3 3 4 4 4 3 3 3 3 3 4 4 4 4 4 5 5 5 6 6 6 7 8 10 11 12 12 12 12
3 2 2 2 2 2 2 2 1 1 1 1 1 1 1 1 1 1 1 1 1 1 1 1 1 1 2 2 2 2 2 1 0 1 2 2 2 2 2 1 1 2 2 2 2 2 3 3 3 3 2 3 3 2 2 2 3 3 4 4 4 4 4 3 3 3 3 4 4 5 4 4 4 4 5 5 4 5 5 6 7 8 9 10 11 12
3 2 2 2 2 2 2 2 1 1 1 1 1 1 1 1 1 1 1 0 0 0 1 1 1 1 1 1 1 1 1 1 1 0 1 1 2 2 2 2 2 2 1 1 2 2 3 3 3 3 2 2 2 2 2 2 2 3 3 3 3 4 4 4 4 3 4 4 4 4 4 4 4 4 4 4 4 5 5 6 6 6 7 6 7 9
3 2 2 2 2 2 2 1 0 1 1 1 1 1 1 1 1 1 1 1 1 1 0 0 0 0 1 1 1 0 1 0 0 1 1 2 2 2 2 2 2 2 1 1 1 2 3 3 3 3 3 2 2 1 2 2 2 3 3 3 3 4 5 4 4 4 4 4 4 4 4 4 4 4 4 5 5 5 6 5 6 6 6 6 6 6
3 3 2 2 1 1 1 1 1 1 1 1 1 1 1 1 1 1 2 2 2 2 1 1 2 2 2 2 2 2 2 2 2 2 2 2 2 3 2 2 2 2 1 1 2 2 3 4 4 3 3 3 2 2 2 2 3 3 4 3 3 3 4 5 5 5 4 4 4 4 4 4 4 4 5 5 5 5 5 5 5 5 6 5 5 5
3 3 2 1 1 1 1 2 2 1 1 1 1 2 2 2 2 2 2 2 2 2 2 2 2 2 3 3 3 3 3 3 3 2 2 2 3 3 3 2 2 2 2 2 2 3 3 4 4 4 3 3 3 3 3 2 3 3 4 4 3 2 3 4 5 5 5 5 4 4 5 4 4 5 5 5 5 5 4 4 5 5 5 5 5 5
3 3 2 1 1 2 2 2 2 1 1 2 2 2 2 2 2 2 2 3 2 2 2 2 2 3 3 3 3 3 4 3 3 3 3 3 3 3 3 3 2 2 2 2 3 3 3 4 4 4 4 3 3 3 4 3 3 3 4 4 3 3 2 3 4 4 5 5 5 5 5 4 4 4 4 4 4 4 3 4 4 5 5 5 5 5
3 2 1 1 2 1 1 2 2 2 2 2 3 3 2 2 2 2 3 3 2 2 2 2 2 3 3 4 4 3 3 3 3 3 3 3 3 3 3 3 3 3 3 3 3 3 3 4 4 4 4 3 3 4 4 4 3 3 4 4 4 4 3 2 3 4 4 5 5 5 5 4 4 3 3 3 3 3 3 4 4 5 6 6 6 6
2 1 1 1 1 1 2 2 2 2 2 2 3 3 2 2 2 2 3 3 2 2 2 2 2 2 3 3 3 3 2 3 3 3 3 4 4 4 4 3 3 3 3 3 3 3 3 3 4 4 3 3 4 4 5 5 5 4 4 5 5 5 5 3 3 4 4 5 5 5 5 4 3 3 3 4 4 4 4 5 5 6 6 6 6 6
2 2 2 2 2 2 3 3 2 2 2 3 3 3 3 3 3 3 3 3 3 2 2 2 2 3 3 3 3 3 2 2 3 3 3 4 4 4 4 4 3 3 3 3 3 4 4 4 3 3 2 3 4 5 6 6 6 5 5 5 5 5 5 4 4 4 4 5 5 5 5 4 4 3 4 5 5 5 5 6 6 6 6 7 7 7
3 3 3 3 3 3 3 3 3 3 3 3 4 4 3 3 3 3 3 3 3 2 2 2 3 3 4 4 3 3 3 3 3 3 3 4 4 4 4 4 3 3 3 3 3 4 4 4 4 4 3 4 4 5 6 6 6 6 6 5 5 5 5 5 5 5 5 5 5 5 5 5 4 5 5 5 5 5 5 6 6 7 7 7 7 7
4 4 4 3 3 3 3 3 4 4 4 4 4 4 3 3 3 3 3 3 3 3 3 3 3 4 5 5 4 4 4 4 3 3 3 3 4 4 4 3 3 3 3 3 4 4 4 5 5 5 5 5 5 5 5 6 6 6 6 5 5 5 6 6 5 5 5 5 5 5 6 5 5 5 5 5 5 5 5 6 6 6 6 7 7 7
4 4 4 4 4 4 4 4 4 4 4 4 4 4 3 3 3 3 3 3 3 3 3 4 4 4 5 5 5 4 4 4 4 3 3 3 3 3 3 3 3 3 3 3 4 4 5 6 7 8 7 7 7 6 6 6 6 6 5 5 5 5 5 5 5 5 5 5 5 5 6 5 5 5 5 5 6 6 6 6 6 6 6 7 7 7
4 4 4 4 4 4 4 4 4 4 4 4 4 4 3 2 3 3 3 3 3 3 4 4 4 5 5 5 5 4 4 4 4 4 3 3 3 3 3 3 3 3 3 3 3 3 4 5 7 9 11 12 11 9 7 7 6 6 5 5 5 5 5 5 5 5 5 5 5 6 6 6 5 5 5 6 6 7 6 6 6 6 6 6 7 7
4 4 4 4 4 4 4 4 4 4 4 4 4 4 3 3 3 3 3 3 3 3 4 4 4 5 5 5 5 5 5 4 4 4 4 3 3 4 4 4 4 3 3 3 3 3 3 3 4 6 10 14 16 14 9 8 7 6 6 6 5 5 5 5 5 5 5 5 5 5 6 6 6 6 6 6 6 7 7 7 7 6 6 6 7 7
Wind_Direction
358 352 349 314 287 268 252 249 257 263 263 258 244 208 185 209 226 234 232 227 227 228 229 230 225 211 192 187 183 180 177 172 168 164 158 154 150 146 142 138 134 130 126 122 118 114 110 113 117 122 128 133 138 142 145 146 146 146 148 149 149 148 144 142 140 140 141 141 140 136 131 126 121 117 116 117 117 118 118 118 118 117 117 117 124 154
185 287 294 270 263 261 259 250 255 264 270 272 268 254 230 223 226 229 228 226 229 234 240 238 233 224 215 206 195 187 182 175 169 163 157 152 148 144 141 137 133 129 124 120 116 112 108 109 111 116 124 132 140 147 153 154 154 155 157 155 153 150 144 144 145 145 146 145 140 134 128 123 120 118 119 120 121 122 122 124 124 124 124 127 140 192
157 249 263 241 244 252 257 243 246 258 270 273 268 253 235 229 224 220 220 218 225 244 283 288 268 246 232 222 203 192 183 174 167 160 154 150 146 143 139 135 131 126 121 117 113 110 107 106 106 107 110 114 120 131 143 147 151 154 150 140 130 122 117 120 123 126 126 126 123 120 118 117 118 120 122 124 125 124 123 124 123 122 123 128 154 232
141 209 255 247 256 261 268 265 258 259 270 275 272 256 238 234 227 214 205 208 201 23 12 352 327 290 257 238 210 193 181 171 163 156 150 147 144 141 138 134 130 126 121 118 115 113 110 108 105 102 98 95 90 88 92 96 100 104 107 104 101 99 95 94 96 98 98 102 104 105 108 111 115 118 119 121 120 119 117 116 114 112 111 117 197 270
142 170 198 237 257 264 273 290 294 281 267 274 269 256 245 240 228 131 78 42 36 32 27 9 354 337 309 263 208 186 174 165 158 152 147 145 142 140 137 134 131 127 124 121 120 118 116 112 107 102 98 92 86 81 80 82 86 91 95 97 97 97 95 95 95 95 96 98 100 102 104 106 107 108 107 108 109 111 112 113 114 114 111 102 301 297
121 141 166 231 252 265 284 301 297 278 257 247 239 240 280 17 50 61 58 42 34 31 27 16 5 352 335 289 199 173 163 156 151 147 144 143 141 139 137 135 132 130 127 125 124 122 121 116 111 106 102 96 91 87 85 86 90 94 97 98 99 99 100 99 99 98 98 98 98 99 98 97 97 95 93 94 96 99 104 110 120 130 140 206 285 295
125 141 180 225 250 275 287 277 258 239 223 216 201 167 72 47 43 42 43 39 34 32 30 26 14 358 342 309 195 159 151 148 144 142 142 141 140 139 137 135 133 132 130 129 128 126 125 122 118 113 108 102 97 93 90 90 92 95 97 99 100 100 101 101 101 101 100 99 98 97 94 92 90 88 85 83 82 81 83 93 119 173 210 240 265 278
254 174 195 214 227 241 251 245 237 226 216 209 196 181 156 96 59 48 44 40 34 31 34 40 27 10 358 335 344 137 142 141 140 140 140 139 139 138 137 137 136 135 134 133 133 134 134 132 130 125 118 111 105 100 96 95 94 96 98 99 101 102 103 104 104 104 103 101 100 98 96 93 89 85 80 74 67 59 46 19 323 282 266 263 263 267
269 238 216 216 220 226 234 228 219 213 213 214 209 199 190 181 161 116 79 58 43 30 23 52 51 33 13 350 354 44 122 127 132 137 141 141 141 140 140 140 139 138 139 139 141 142 145 146 145 141 135 127 119 112 105 101 98 98 100 102 104 106 108 108 107 107 106 105 103 101 98 95 90 84 78 67 55 37 10 340 315 298 286 278 272 268
266 253 235 224 223 227 237 230 214 202 204 219 229 228 217 198 185 175 177 153 96 45 20 30 45 46 25 3 1 21 84 99 102 107 120 120 131 140 141 141 142 144 145 146 148 152 157 159 160 160 157 148 137 126 116 110 107 105 106 108 109 111 112 111 110 110 108 107 105 103 101 98 93 87 78 62 38 5 336 316 304 296 289 283 277 271
259 250 238 228 227 234 248 255 240 193 193 214 239 251 247 220 200 190 198 188 167 120 47 34 31 29 20 6 2 9 44 75 76 73 77 81 97 113 117 125 134 142 148 150 155 161 168 173 177 180 180 171 158 143 130 123 119 117 117 117 117 117 116 115 114 113 112 111 110 109 108 107 104 101 90 45 326 304 296 292 289 286 283 280 276 271
255 245 231 221 218 220 223 213 215 212 196 207 220 231 232 223 211 204 205 193 176 154 125 74 46 32 18 1 349 350 13 67 73 64 57 58 59 64 78 94 108 122 136 143 151 161 174 187 193 196 197 190 175 158 145 138 134 131 130 129 128 126 124 123 122 121 120 121 122 124 129 134 142 165 223 263 273 275 276 275 274 274 273 272 270 267
258 237 232 224 220 215 203 187 186 200 209 211 215 217 217 205 202 209 221 186 153 140 135 113 84 59 42 15 347 336 343 60 81 80 68 52 40 35 47 79 93 103 116 122 119 121 150 183 194 199 206 198 183 168 157 150 147 145 144 144 142 141 139 137 136 135 137 142 149 160 173 187 204 226 246 261 268 270 270 269 267 266 265 264 263 261
253 231 234 235 233 225 209 193 195 204 213 219 226 232 223 145 138 143 135 84 77 86 108 111 102 84 68 43 1 334 324 21 87 91 74 53 31 17 12 80 105 113 125 127 121 110 100 137 174 189 200 195 183 172 166 160 157 156 157 158 158 158 158 157 158 160 166 177 187 198 207 215 226 238 252 262 268 270 270 267 265 263 261 259 257 256
248 237 241 244 242 236 221 206 209 215 217 214 228 19 33 86 130 153 150 119 105 104 114 117 113 105 100 80 36 343 318 320 120 120 105 68 28 4 350 47 110 122 137 142 137 125 99 98 155 179 188 185 177 171 173 170 168 167 169 171 174 176 178 181 185 191 199 207 214 219 223 227 234 243 253 263 268 270 269 267 265 262 260 257 254 252
244 240 248 252 250 243 222 213 222 229 222 151 111 116 134 151 170 177 172 147 138 141 149 153 158 165 162 126 109 53 322 310 179 141 133 105 46 5 341 346 139 145 157 159 149 139 127 113 135 169 183 174 171 171 175 176 176 177 179 184 188 193 197 202 207 213 219 224 227 230 231 234 238 244 252 261 266 268 268 266 264 261 258 255 251 248
253 245 252 258 258 249 219 210 223 232 204 148 160 186 194 188 187 184 173 154 153 163 174 174 177 180 186 158 136 122 60 298 213 146 136 125 85 13 336 310 192 169 168 171 158 145 148 144 141 147 162 160 164 169 177 180 182 185 189 195 200 205 210 215 220 225 228 231 233 235 236 238 240 244 250 257 262 264 264 263 261 259 257 252 248 244
260 252 257 265 267 265 232 206 220 226 196 188 196 214 235 218 198 182 170 162 168 179 187 189 188 184 173 173 157 139 136 203 180 157 151 156 133 73 349 306 249 195 175 175 165 153 151 151 154 154 146 155 164 173 181 185 189 193 199 204 210 215 219 223 227 231 234 236 237 239 239 240 241 244 247 252 256 259 259 259 258 256 254 250 245 240
267 261 259 267 277 289 281 225 212 210 212 203 193 191 213 233 212 192 182 178 183 188 190 196 199 196 177 167 141 124 160 220 189 175 183 185 162 130 121 270 249 217 188 179 167 152 148 161 167 164 154 165 178 186 190 194 198 203 209 214 219 223 226 229 232 235 237 239 241 242 242 242 242 242 244 247 251 253 253 254 254 253 251 247 241 236
289 285 282 294 299 297 279 250 225 210 207 196 188 187 195 202 206 205 197 192 194 198 197 202 204 198 161 125 104 97 232 241 206 192 200 193 167 140 155 220 222 212 202 189 164 141 163 185 190 193 198 201 202 203 204 206 209 214 219 223 227 229 231 233 235 238 240 242 244 245 246 244 243 241 241 243 245 247 248 249 249 249 249 245 239 233
290 294 327 331 311 293 279 265 234 202 182 172 173 182 190 192 204 212 209 201 202 206 207 210 204 160 82 85 87 85 316 234 211 201 203 201 176 149 141 199 218 216 212 195 166 146 177 198 201 201 208 213 214 215 215 217 219 222 225 229 231 233 234 235 237 239 241 243 245 246 247 245 243 240 238 239 240 241 243 244 246 247 247 244 237 230
303 320 2 329 288 282 287 291 254 179 162 170 180 190 190 194 203 209 210 205 204 208 217 214 66 55 49 57 61 54 351 280 246 216 186 220 206 177 130 168 215 222 222 198 168 153 183 201 208 209 212 217 220 222 223 225 227 229 230 232 233 234 235 236 237 239 241 244 245 246 247 245 242 239 237 235 235 236 237 239 242 244 246 244 237 228
328 333 338 326 305 298 303 309 296 194 171 185 197 207 200 204 208 209 203 201 195 176 120 81 69 64 63 60 53 40 11 313 302 282 185 228 216 174 120 154 201 222 234 207 170 154 184 199 209 215 219 223 225 227 228 229 231 232 233 234 234 235 235 236 237 239 241 244 245 246 246 244 241 238 235 233 232 232 232 235 238 241 243 241 235 227
345 342 342 340 331 318 305 301 293 247 160 143 107 52 26 40 47 42 32 69 85 88 88 92 98 101 96 96 89 76 67 328 308 290 229 229 216 143 109 158 199 218 229 203 160 150 184 200 206 209 217 224 227 229 230 231 232 233 234 235 235 235 235 236 237 239 241 243 244 245 244 242 239 236 233 230 229 228 228 230 233 236 239 238 233 226
4 357 350 339 324 308 296 297 299 303 125 115 105 92 79 78 77 75 71 77 89 104 120 130 145 154 136 115 112 121 133 179 278 275 243 244 221 137 122 179 207 216 222 186 144 145 198 209 206 201 206 219 225 227 229 231 232 233 235 235 236 236 236 237 238 239 241 242 243 243 242 240 237 234 231 228 226 224 223 226 229 232 234 234 231 227
47 44 37 25 355 319 304 315 352 74 111 121 122 120 115 109 105 103 107 118 131 142 150 171 190 193 159 142 151 164 146 165 220 255 253 257 237 153 138 191 219 227 226 180 150 168 212 218 210 200 198 209 216 221 225 229 232 234 235 236 236 237 237 238 238 239 241 242 242 242 240 238 235 232 229 226 224 222 221 223 225 228 230 230 229 227
57 56 58 60 66 74 82 88 92 97 105 116 124 131 135 135 136 142 155 161 164 168 175 196 205 202 171 176 179 170 148 166 194 222 245 258 248 202 139 174 220 236 236 209 180 188 213 224 218 206 197 197 203 212 220 226 231 234 236 237 238 238 238 239 239 240 241 241 241 241 239 236 233 230 227 224 221 219 218 219 221 224 225 225 226 225
56 55 54 57 63 72 82 89 94 99 106 114 123 132 145 159 173 180 181 171 171 178 190 206 212 209 193 193 175 151 153 177 188 194 207 243 248 220 116 144 200 229 238 230 199 193 211 226 224 213 199 190 192 202 213 221 228 233 236 239 240 241 241 241 241 241 242 242 241 239 237 234 232 229 225 222 220 217 216 216 217 219 221 222 222 221
61 58 55 54 57 63 73 82 90 96 100 105 109 114 120 229 240 212 152 150 166 186 204 215 218 216 200 167 140 145 180 190 183 175 176 217 234 208 106 138 185 208 224 228 207 196 202 211 211 208 201 189 189 197 204 212 220 227 230 237 240 242 242 242 243 243 242 241 240 237 235 233 231 228 225 222 219 216 213 211 211 213 216 218 219 219
64 61 59 55 55 57 60 67 76 84 88 86 81 69 36 345 326 338 85 145 180 202 213 221 218 201 155 141 165 194 197 174 163 162 173 201 210 174 120 153 181 199 218 226 223 211 201 182 174 176 193 193 197 200 199 203 209 215 220 229 234 237 239 241 242 242 242 240 238 235 233 231 229 227 225 223 220 216 213 208 206 206 207 210 212 213
48 50 55 55 54 54 55 55 61 69 74 71 64 53 36 9 351 348 64 189 211 223 227 228 214 191 181 199 219 222 183 135 142 159 180 205 208 160 136 159 175 194 236 252 253 241 222 163 145 146 177 193 201 203 199 200 204 209 214 220 227 231 233 236 239 240 240 237 235 232 230 228 227 226 225 223 221 218 213 208 205 202 203 203 204 206
38 38 43 51 56 58 58 59 60 62 65 62 55 48 39 28 17 10 0 299 268 265 261 248 227 207 209 231 249 266 68 100 136 168 188 204 194 122 145 162 163 171 233 281 287 281 277 179 127 132 168 184 193 197 196 198 202 207 214 219 225 228 226 227 231 234 235 233 231 229 228 227 226 225 225 224 222 219 215 211 207 205 203 201 202 203
64 64 65 75 79 79 75 75 73 71 66 61 57 53 45 42 39 35 27 10 349 328 311 293 259 231 227 248 267 301 44 91 141 175 194 192 162 122 161 174 167 164 179 252 285 293 296 318 47 113 164 175 183 189 190 194 198 204 211 219 225 225 219 217 220 223 222 223 223 223 223 225 226 227 226 225 223 221 217 213 210 208 205 203 202 203
156 148 141 136 129 122 115 105 96 86 77 68 60 55 51 50 52 51 47 34 19 4 350 341 319 270 242 253 266 281 43 102 141 172 194 189 165 141 165 185 182 174 171 197 230 256 279 289 291 243 192 176 177 183 187 188 189 193 204 219 225 224 213 211 214 215 211 209 209 209 209 218 224 227 227 226 224 221 218 214 212 211 210 206 203 202
196 186 181 184 178 168 155 141 127 114 101 82 64 54 46 48 52 55 52 45 35 26 14 4 355 340 304 277 274 276 1 106 139 169 194 191 171 148 169 192 192 186 186 197 208 220 238 237 238 239 243 213 191 180 176 175 175 179 191 216 227 228 216 212 214 215 211 209 208 207 204 208 213 219 224 225 224 222 219 216 214 213 213 211 209 205
220 214 203 207 209 207 195 175 157 144 130 109 86 63 48 45 46 49 47 40 38 38 36 27 16 4 351 328 313 317 14 82 135 170 192 194 187 175 187 193 194 195 202 206 212 220 232 230 229 234 247 246 227 190 159 157 164 173 185 204 216 221 218 217 219 219 216 215 214 212 209 209 210 213 216 220 223 224 223 220 217 216 216 214 214 213
234 231 216 213 219 228 231 215 198 178 155 134 120 102 76 59 47 44 42 30 24 28 43 48 42 29 17 0 349 351 17 72 147 177 192 196 203 213 220 193 190 201 215 216 217 222 233 233 229 228 236 243 239 211 149 149 163 180 191 196 203 208 206 207 214 222 223 221 220 217 212 212 213 212 212 214 218 223 226 226 223 221 221 219 217 217
241 240 227 213 213 222 237 236 228 207 169 142 129 115 96 82 66 53 50 36 19 9 25 49 56 47 31 25 18 14 13 25 154 185 191 195 210 226 234 213 199 209 231 237 232 227 231 234 233 230 228 234 235 219 154 156 172 186 190 190 195 200 201 196 201 212 221 224 224 222 216 214 215 215 214 211 212 216 221 222 223 224 225 222 220 220
244 247 242 224 216 217 231 235 229 196 129 118 112 110 107 109 107 106 103 108 72 25 29 34 51 55 42 24 24 31 36 20 359 309 210 203 214 229 237 230 218 214 225 255 257 248 237 239 239 238 233 230 220 201 168 174 185 188 180 180 192 202 204 197 196 203 213 219 223 222 218 213 213 216 218 214 214 216 218 217 216 217 220 220 220 220
239 245 247 235 223 216 226 229 155 90 93 105 116 127 155 169 170 171 181 184 180 166 140 178 211 211 202 218 218 162 96 80 208 216 202 207 218 228 235 236 230 219 192 218 246 252 247 248 250 253 256 254 237 206 177 184 191 193 183 183 194 201 199 194 194 200 207 214 218 219 215 209 209 213 218 217 218 220 220 219 215 213 213 215 215 215
237 240 241 231 212 186 159 97 84 86 97 125 157 185 200 207 206 202 200 198 194 191 191 204 215 219 214 209 204 195 177 183 193 199 198 210 221 229 236 238 234 224 200 206 224 238 246 250 254 257 260 263 261 247 219 194 189 190 197 205 206 197 185 187 190 195 201 209 216 219 217 210 209 212 217 218 221 223 226 227 223 217 214 217 218 217
241 243 238 210 162 126 106 104 110 120 140 180 208 215 213 216 220 222 223 219 209 199 193 209 224 231 231 215 200 188 180 183 184 186 189 206 220 229 234 233 227 217 209 215 223 231 239 247 252 254 255 256 256 252 242 215 193 190 205 218 217 200 182 188 188 189 196 203 209 213 217 214 212 212 214 216 217 220 225 234 235 232 225 224 225 227
240 242 237 167 120 115 127 140 154 166 185 211 223 225 216 215 222 233 241 242 230 211 192 207 230 247 256 247 224 194 173 172 179 186 184 191 209 226 235 232 223 210 205 219 227 230 234 241 247 252 254 255 255 253 254 237 211 198 207 217 217 211 208 189 181 182 195 201 204 206 211 214 215 214 214 216 215 214 213 226 235 239 237 234 232 234
243 243 228 106 107 124 163 182 190 197 207 222 231 229 215 205 213 229 242 249 245 230 197 208 232 250 259 262 254 230 183 165 171 186 190 188 197 212 232 237 232 222 211 222 229 233 232 235 240 244 247 250 252 253 255 250 237 221 210 211 215 220 228 192 164 166 190 200 203 204 206 211 213 213 214 220 222 220 216 220 225 231 234 235 235 235
244 222 155 137 156 189 211 207 202 201 214 231 240 239 219 197 202 220 234 245 245 235 204 206 228 246 252 253 255 248 215 176 169 173 183 186 192 200 214 227 233 231 226 231 237 242 243 241 239 237 234 238 242 245 247 250 248 241 227 215 216 226 239 222 177 167 185 195 200 201 199 199 202 209 219 224 225 224 221 220 222 224 226 228 229 231
237 224 211 204 211 221 227 216 207 204 218 232 238 237 221 198 198 211 226 237 240 235 212 213 230 247 256 255 255 250 240 211 187 175 172 178 183 190 198 209 221 230 235 242 249 254 258 260 258 249 231 233 236 239 240 241 244 245 239 224 218 222 234 228 210 193 190 193 194 190 180 179 188 207 223 226 227 226 222 220 219 220 220 222 224 225
235 237 233 223 222 226 233 228 223 223 231 238 241 238 222 200 198 208 222 230 234 232 217 218 231 243 252 257 257 254 251 244 224 194 173 172 177 182 186 194 207 220 234 245 254 261 265 272 274 268 252 243 240 239 237 234 235 238 240 232 225 222 225 224 216 205 197 199 190 176 160 170 190 210 222 227 229 228 224 220 218 218 218 220 221 223
241 245 247 239 234 233 240 241 240 240 245 249 250 246 227 201 199 209 221 223 226 229 227 227 233 240 246 250 251 250 250 254 247 225 186 173 172 175 178 182 192 206 222 234 245 253 257 260 260 257 251 246 245 245 241 234 230 231 234 233 230 227 227 226 218 208 202 204 190 172 161 176 194 208 217 224 230 231 227 221 217 215 216 218 220 222
248 252 255 252 249 248 248 248 246 247 250 252 254 251 230 201 203 215 225 223 224 228 232 236 239 243 246 248 248 246 245 249 249 239 205 178 170 169 172 176 182 194 208 221 231 240 247 246 242 238 235 235 239 244 247 241 235 231 230 230 229 229 230 228 222 214 207 203 191 180 176 190 202 210 215 225 232 234 233 227 220 215 213 215 218 221
244 247 251 251 252 252 253 252 249 248 249 251 253 251 236 207 204 215 228 226 227 231 237 240 244 247 250 251 250 246 242 243 244 241 221 187 173 171 174 176 180 189 203 214 222 229 236 240 234 228 223 222 224 230 239 240 239 234 230 228 227 227 228 228 224 218 211 203 193 187 189 201 210 217 222 229 235 238 239 235 228 220 212 211 215 219
236 236 239 241 243 246 250 249 248 247 247 249 252 252 245 224 213 214 223 224 228 233 240 242 245 247 250 253 252 250 244 242 243 241 229 193 178 178 181 181 185 192 207 219 226 230 235 242 240 230 219 213 213 215 222 228 231 232 231 227 223 221 224 226 224 220 215 208 197 189 189 202 211 217 220 226 232 237 239 237 233 226 215 211 212 217